| time (UTC) | temp F | wind direction | speed knots | gust knots | rain 1hr in | rain 24hr in | rain mn in | humidity % | barometer mb |
| 20260504050721 | 46 | 55 | 0.0 | 0.9 | 0.00 | 0.00 | 0.00 | 68 | 1017.0 |
| 20260504050218 | 46 | 56 | 0.0 | 0.0 | 0.00 | 0.00 | 0.00 | 71 | 1017.1 |
| 20260504045715 | 47 | 56 | 0.0 | 0.9 | 0.00 | 0.00 | 0.00 | 69 | 1017.2 |
| 20260504045215 | 47 | 55 | 0.0 | 0.0 | 0.00 | 0.00 | 0.00 | 65 | 1017.1 |
| 20260504044713 | 47 | 79 | 0.0 | 0.0 | 0.00 | 0.00 | 0.00 | 63 | 1017.1 |
| 20260504044210 | 47 | 79 | 0.0 | 0.9 | 0.00 | 0.00 | 0.00 | 65 | 1016.9 |
| 20260504043707 | 47 | 286 | 0.0 | 0.9 | 0.00 | 0.00 | 0.00 | 65 | 1016.9 |
| 20260504043204 | 47 | 286 | 0.0 | 0.9 | 0.00 | 0.00 | 0.00 | 67 | 1017.1 |
| 20260504042702 | 47 | 287 | 0.9 | 1.7 | 0.00 | 0.00 | 0.00 | 65 | 1017.0 |
| 20260504042158 | 47 | 76 | 0.0 | 0.0 | 0.00 | 0.00 | 0.00 | 63 | 1017.1 |
| 20260504041654 | 48 | 50 | 0.9 | 1.7 | 0.00 | 0.00 | 0.00 | 65 | 1017.0 |
| 20260504041150 | 47 | 75 | 0.0 | 0.9 | 0.00 | 0.00 | 0.00 | 57 | 1016.8 |
| 20260504040647 | 46 | 74 | 0.9 | 0.9 | 0.00 | 0.00 | 0.00 | 62 | 1016.9 |
| 20260504040144 | 46 | 81 | 0.0 | 0.9 | 0.00 | 0.00 | 0.00 | 72 | 1017.1 |
| 20260504035641 | 46 | 258 | 1.7 | 1.7 | 0.00 | 0.00 | 0.00 | 73 | 1016.9 |
| 20260504035137 | 47 | 231 | 1.7 | 1.7 | 0.00 | 0.00 | 0.00 | 71 | 1017.0 |
| 20260504034635 | 48 | 275 | 1.7 | 2.6 | 0.00 | 0.00 | 0.00 | 59 | 1017.0 |
| 20260504034132 | 47 | 323 | 0.0 | 0.0 | 0.00 | 0.00 | 0.00 | 58 | 1017.1 |
| 20260504033629 | 48 | 323 | 0.0 | 1.7 | 0.00 | 0.00 | 0.00 | 61 | 1017.0 |
| 20260504033127 | 47 | 322 | 0.0 | 0.0 | 0.00 | 0.00 | 0.00 | 54 | 1016.9 |
| 20260504032624 | 47 | 324 | 0.0 | 0.9 | 0.00 | 0.00 | 0.00 | 56 | 1016.9 |
| 20260504032121 | 48 | 322 | 0.9 | 2.6 | 0.00 | 0.00 | 0.00 | 61 | 1017.0 |
| 20260504031618 | 47 | 51 | 0.0 | 0.0 | 0.00 | 0.00 | 0.00 | 56 | 1017.0 |
| 20260504031114 | 47 | 51 | 0.0 | 0.9 | 0.00 | 0.00 | 0.00 | 58 | 1016.9 |
| 20260504030611 | 46 | 51 | 0.0 | 0.0 | 0.00 | 0.00 | 0.00 | 57 | 1017.0 |
| 20260504030108 | 46 | 51 | 1.7 | 1.7 | 0.00 | 0.00 | 0.00 | 62 | 1016.9 |
| 20260504025604 | 46 | 22 | 0.0 | 1.7 | 0.00 | 0.00 | 0.00 | 64 | 1017.0 |
| 20260504025101 | 47 | 8 | 1.7 | 1.7 | 0.00 | 0.00 | 0.00 | 62 | 1017.2 |
| 20260504024558 | 47 | 79 | 0.0 | 0.0 | 0.00 | 0.00 | 0.00 | 56 | 1017.1 |
| 20260504024055 | 47 | 79 | 0.9 | 0.9 | 0.00 | 0.00 | 0.00 | 53 | 1017.0 |
| 20260504023552 | 47 | 79 | 0.0 | 0.0 | 0.00 | 0.00 | 0.00 | 54 | 1017.0 |
| 20260504023048 | 48 | 79 | 0.0 | 0.0 | 0.00 | 0.00 | 0.00 | 63 | 1017.0 |
| 20260504022543 | 48 | 79 | 0.0 | 0.9 | 0.00 | 0.00 | 0.00 | 53 | 1016.7 |
| 20260504022040 | 48 | 79 | 0.0 | 0.0 | 0.00 | 0.00 | 0.00 | 48 | 1016.9 |
| 20260504021538 | 48 | 79 | 0.0 | 0.9 | 0.00 | 0.00 | 0.00 | 47 | 1017.0 |
| 20260504021034 | 47 | 79 | 0.9 | 0.9 | 0.00 | 0.00 | 0.00 | 50 | 1016.9 |
| 20260504020531 | 47 | 95 | 0.0 | 1.7 | 0.00 | 0.00 | 0.00 | 54 | 1016.8 |
| 20260504020028 | 46 | 352 | 0.9 | 1.7 | 0.00 | 0.00 | 0.00 | 52 | 1016.7 |
| 20260504015524 | 45 | 26 | 0.9 | 0.9 | 0.00 | 0.00 | 0.00 | 56 | 1016.6 |
| 20260504015020 | 46 | 346 | 0.9 | 1.7 | 0.00 | 0.00 | 0.00 | 60 | 1016.5 |
| 20260504014516 | 47 | 1 | 0.9 | 0.9 | 0.00 | 0.00 | 0.00 | 50 | 1016.3 |
| 20260504014014 | 47 | 1 | 0.0 | 0.0 | 0.00 | 0.00 | 0.00 | 48 | 1016.6 |
| 20260504013512 | 47 | 1 | 0.0 | 0.0 | 0.00 | 0.00 | 0.00 | 48 | 1016.5 |
| 20260504013009 | 48 | 1 | 0.0 | 0.9 | 0.00 | 0.00 | 0.00 | 49 | 1016.4 |
| 20260504012506 | 47 | 347 | 0.9 | 1.7 | 0.00 | 0.00 | 0.00 | 50 | 1016.5 |
| 20260504012004 | 46 | 348 | 0.9 | 0.9 | 0.00 | 0.00 | 0.00 | 53 | 1016.2 |
| 20260504011500 | 48 | 349 | 1.7 | 1.7 | 0.00 | 0.00 | 0.00 | 55 | 1016.3 |
| 20260504010955 | 50 | 344 | 0.0 | 1.7 | 0.00 | 0.00 | 0.00 | 49 | 1016.0 |
| 20260504010452 | 50 | 347 | 0.0 | 0.9 | 0.00 | 0.00 | 0.00 | 42 | 1015.9 |
| 20260504005948 | 51 | 347 | 0.9 | 1.7 | 0.00 | 0.00 | 0.00 | 43 | 1015.9 |
| 20260504005445 | 51 | 352 | 0.0 | 0.9 | 0.00 | 0.00 | 0.00 | 39 | 1015.9 |
| 20260504004943 | 50 | 352 | 0.0 | 0.0 | 0.00 | 0.00 | 0.00 | 40 | 1015.7 |
| 20260504004440 | 51 | 353 | 0.0 | 0.0 | 0.00 | 0.00 | 0.00 | 40 | 1015.9 |
| 20260504003937 | 51 | 352 | 0.0 | 0.0 | 0.00 | 0.00 | 0.00 | 40 | 1015.8 |
| 20260504003433 | 52 | 352 | 0.0 | 0.9 | 0.00 | 0.00 | 0.00 | 40 | 1015.8 |
| 20260504002930 | 52 | 353 | 0.0 | 0.0 | 0.00 | 0.00 | 0.00 | 40 | 1015.9 |
| 20260504002427 | 52 | 353 | 0.0 | 0.0 | 0.00 | 0.00 | 0.00 | 40 | 1015.7 |
| 20260504001924 | 52 | 353 | 0.9 | 0.9 | 0.00 | 0.00 | 0.00 | 39 | 1015.7 |
| 20260504001422 | 53 | 0 | 0.0 | 0.0 | 0.00 | 0.00 | 0.00 | 36 | 1015.7 |
| 20260504000918 | 53 | 350 | 0.9 | 0.9 | 0.00 | 0.00 | 0.00 | 37 | 1015.8 |
| 20260504000416 | 54 | 20 | 0.0 | 0.9 | 0.00 | 0.00 | 0.00 | 38 | 1015.7 |
| 20260503235912 | 55 | 14 | 0.0 | 0.0 | 0.00 | 0.00 | 0.00 | 38 | 1015.6 |
| 20260503235410 | 57 | 14 | 0.0 | 0.9 | 0.00 | 0.00 | 0.00 | 35 | 1015.7 |
| 20260503234908 | 58 | 14 | 0.0 | 0.0 | 0.00 | 0.00 | 0.00 | 34 | 1015.6 |
| 20260503234405 | 60 | 14 | 0.0 | 0.0 | 0.00 | 0.00 | 0.00 | 34 | 1015.5 |
| 20260503233903 | 61 | 14 | 0.0 | 0.0 | 0.00 | 0.00 | 0.00 | 35 | 1015.6 |
| 20260503233359 | 62 | 14 | 0.0 | 0.9 | 0.00 | 0.00 | 0.00 | 34 | 1015.5 |
| 20260503232855 | 61 | 14 | 0.0 | 0.0 | 0.00 | 0.00 | 0.00 | 32 | 1015.7 |
| 20260503232353 | 61 | 14 | 0.0 | 0.0 | 0.00 | 0.00 | 0.00 | 32 | 1015.8 |
| 20260503231850 | 61 | 265 | 1.7 | 2.6 | 0.00 | 0.00 | 0.00 | 28 | 1015.6 |
| 20260503231347 | 62 | 335 | 0.9 | 1.7 | 0.00 | 0.00 | 0.00 | 26 | 1015.7 |
| 20260503230843 | 62 | 308 | 1.7 | 1.7 | 0.00 | 0.00 | 0.00 | 27 | 1015.5 |
| 20260503230340 | 61 | 284 | 1.7 | 2.6 | 0.00 | 0.00 | 0.00 | 27 | 1015.6 |
| 20260503225838 | 62 | 267 | 3.5 | 3.5 | 0.00 | 0.00 | 0.00 | 28 | 1015.5 |
| 20260503225334 | 62 | 250 | 2.6 | 5.2 | 0.00 | 0.00 | 0.00 | 30 | 1015.7 |
| 20260503224830 | 63 | 71 | 0.9 | 5.2 | 0.00 | 0.00 | 0.00 | 25 | 1015.5 |
| 20260503224327 | 63 | 88 | 0.0 | 0.9 | 0.00 | 0.00 | 0.00 | 27 | 1015.4 |
| 20260503223825 | 63 | 283 | 1.7 | 3.5 | 0.00 | 0.00 | 0.00 | 26 | 1015.4 |
| 20260503223323 | 63 | 314 | 1.7 | 2.6 | 0.00 | 0.00 | 0.00 | 26 | 1015.5 |
| 20260503222818 | 63 | 88 | 0.9 | 2.6 | 0.00 | 0.00 | 0.00 | 25 | 1015.4 |
| 20260503222317 | 64 | 119 | 1.7 | 3.5 | 0.00 | 0.00 | 0.00 | 25 | 1015.4 |
| 20260503221815 | 64 | 244 | 0.9 | 2.6 | 0.00 | 0.00 | 0.00 | 29 | 1015.2 |
| 20260503221313 | 63 | 304 | 0.0 | 2.6 | 0.00 | 0.00 | 0.00 | 26 | 1015.4 |
| 20260503220809 | 63 | 288 | 3.5 | 3.5 | 0.00 | 0.00 | 0.00 | 26 | 1015.3 |
| 20260503220306 | 63 | 308 | 2.6 | 3.5 | 0.00 | 0.00 | 0.00 | 27 | 1015.3 |
| 20260503215802 | 64 | 302 | 2.6 | 7.8 | 0.00 | 0.00 | 0.00 | 24 | 1015.3 |
| 20260503215259 | 64 | 248 | 2.6 | 3.5 | 0.00 | 0.00 | 0.00 | 29 | 1015.5 |
| 20260503214757 | 63 | 327 | 1.7 | 3.5 | 0.00 | 0.00 | 0.00 | 26 | 1015.4 |
| 20260503214254 | 62 | 57 | 0.9 | 7.0 | 0.00 | 0.00 | 0.00 | 27 | 1015.4 |
| 20260503213752 | 63 | 260 | 4.3 | 8.7 | 0.00 | 0.00 | 0.00 | 25 | 1015.7 |
| 20260503213249 | 63 | 128 | 2.6 | 5.2 | 0.00 | 0.00 | 0.00 | 24 | 1015.6 |
| 20260503212746 | 63 | 287 | 2.6 | 6.1 | 0.00 | 0.00 | 0.00 | 28 | 1015.5 |
| 20260503212244 | 63 | 280 | 6.1 | 7.0 | 0.00 | 0.00 | 0.00 | 27 | 1015.6 |
| 20260503211741 | 63 | 305 | 2.6 | 5.2 | 0.00 | 0.00 | 0.00 | 25 | 1015.7 |
| 20260503211237 | 62 | 74 | 0.9 | 1.7 | 0.00 | 0.00 | 0.00 | 28 | 1015.7 |
| 20260503210732 | 64 | 267 | 7.8 | 9.6 | 0.00 | 0.00 | 0.00 | 25 | 1015.7 |
| 20260503210230 | 64 | 301 | 3.5 | 5.2 | 0.00 | 0.00 | 0.00 | 28 | 1015.5 |
| 20260503205725 | 62 | 284 | 1.7 | 3.5 | 0.00 | 0.00 | 0.00 | 26 | 1015.7 |
| 20260503205222 | 63 | 332 | 6.1 | 8.7 | 0.00 | 0.00 | 0.00 | 26 | 1015.7 |
| 20260503204718 | 62 | 191 | 1.7 | 2.6 | 0.00 | 0.00 | 0.00 | 29 | 1015.7 |
| 20260503204216 | 62 | 273 | 7.0 | 13.0 | 0.00 | 0.00 | 0.00 | 26 | 1015.7 |
| 20260503203713 | 62 | 358 | 3.5 | 5.2 | 0.00 | 0.00 | 0.00 | 25 | 1015.8 |
| 20260503203211 | 62 | 287 | 3.5 | 5.2 | 0.00 | 0.00 | 0.00 | 25 | 1016.0 |
| 20260503202708 | 62 | 277 | 3.5 | 8.7 | 0.00 | 0.00 | 0.00 | 26 | 1015.9 |
| 20260503202206 | 61 | 199 | 6.1 | 7.8 | 0.00 | 0.00 | 0.00 | 30 | 1015.9 |
| 20260503201703 | 61 | 280 | 6.1 | 9.6 | 0.00 | 0.00 | 0.00 | 27 | 1015.9 |
| 20260503201200 | 61 | 294 | 5.2 | 7.8 | 0.00 | 0.00 | 0.00 | 28 | 1016.3 |
| 20260503200656 | 62 | 322 | 7.0 | 13.9 | 0.00 | 0.00 | 0.00 | 27 | 1016.2 |
| 20260503200153 | 63 | 309 | 3.5 | 5.2 | 0.00 | 0.00 | 0.00 | 29 | 1016.4 |
| 20260503195650 | 62 | 331 | 2.6 | 3.5 | 0.00 | 0.00 | 0.00 | 29 | 1016.3 |
| 20260503195147 | 62 | 3 | 0.9 | 1.7 | 0.00 | 0.00 | 0.00 | 25 | 1016.5 |
| 20260503194644 | 61 | 117 | 3.5 | 5.2 | 0.00 | 0.00 | 0.00 | 26 | 1016.5 |
| 20260503194139 | 61 | 292 | 2.6 | 8.7 | 0.00 | 0.00 | 0.00 | 29 | 1016.8 |
| 20260503193637 | 62 | 264 | 7.0 | 11.3 | 0.00 | 0.00 | 0.00 | 28 | 1016.7 |
| 20260503193132 | 62 | 315 | 3.5 | 7.8 | 0.00 | 0.00 | 0.00 | 24 | 1016.6 |
| 20260503192628 | 61 | 44 | 1.7 | 6.1 | 0.00 | 0.00 | 0.00 | 31 | 1016.7 |
| 20260503192124 | 60 | 305 | 5.2 | 9.6 | 0.00 | 0.00 | 0.00 | 28 | 1016.6 |
| 20260503191621 | 60 | 258 | 3.5 | 6.1 | 0.00 | 0.00 | 0.00 | 28 | 1016.8 |
| 20260503191118 | 60 | 247 | 7.0 | 9.6 | 0.00 | 0.00 | 0.00 | 29 | 1016.8 |
| 20260503190615 | 60 | 275 | 4.3 | 7.0 | 0.00 | 0.00 | 0.00 | 29 | 1016.8 |
| 20260503190112 | 60 | 278 | 4.3 | 7.0 | 0.00 | 0.00 | 0.00 | 29 | 1017.1 |
| 20260503185608 | 60 | 304 | 6.1 | 12.2 | 0.00 | 0.00 | 0.00 | 30 | 1017.0 |
| 20260503185108 | 59 | 153 | 1.7 | 6.1 | 0.00 | 0.00 | 0.00 | 30 | 1017.3 |
| 20260503184604 | 59 | 307 | 7.0 | 13.9 | 0.00 | 0.00 | 0.00 | 28 | 1017.2 |
| 20260503184100 | 59 | 264 | 5.2 | 7.8 | 0.00 | 0.00 | 0.00 | 33 | 1017.5 |
| 20260503183557 | 59 | 282 | 6.1 | 9.6 | 0.00 | 0.00 | 0.00 | 30 | 1017.3 |
| 20260503183054 | 59 | 280 | 3.5 | 5.2 | 0.00 | 0.00 | 0.00 | 31 | 1017.5 |
| 20260503182553 | 59 | 270 | 7.0 | 11.3 | 0.00 | 0.00 | 0.00 | 32 | 1017.5 |
| 20260503182050 | 59 | 0 | 1.7 | 7.0 | 0.00 | 0.00 | 0.00 | 29 | 1017.6 |
| 20260503181547 | 60 | 275 | 3.5 | 7.8 | 0.00 | 0.00 | 0.00 | 31 | 1017.6 |
| 20260503181043 | 59 | 285 | 1.7 | 5.2 | 0.00 | 0.00 | 0.00 | 34 | 1017.6 |
| 20260503180541 | 57 | 241 | 3.5 | 7.0 | 0.00 | 0.00 | 0.00 | 33 | 1017.7 |
| 20260503180038 | 58 | 284 | 10.4 | 14.8 | 0.00 | 0.00 | 0.00 | 32 | 1017.6 |
| 20260503175535 | 57 | 263 | 5.2 | 6.1 | 0.00 | 0.00 | 0.00 | 33 | 1017.6 |
| 20260503175033 | 57 | 271 | 5.2 | 7.8 | 0.00 | 0.00 | 0.00 | 31 | 1017.6 |
| 20260503174530 | 58 | 255 | 7.8 | 13.9 | 0.00 | 0.00 | 0.00 | 32 | 1017.7 |
| 20260503174026 | 57 | 304 | 5.2 | 8.7 | 0.00 | 0.00 | 0.00 | 33 | 1017.4 |
| 20260503173521 | 57 | 247 | 7.0 | 9.6 | 0.00 | 0.00 | 0.00 | 32 | 1017.8 |
| 20260503173017 | 57 | 269 | 8.7 | 13.0 | 0.00 | 0.00 | 0.00 | 33 | 1017.5 |
| 20260503172515 | 57 | 218 | 4.3 | 7.8 | 0.00 | 0.00 | 0.00 | 34 | 1017.7 |
| 20260503172012 | 57 | 278 | 4.3 | 6.1 | 0.00 | 0.00 | 0.00 | 34 | 1018.0 |
| 20260503171508 | 56 | 275 | 3.5 | 5.2 | 0.00 | 0.00 | 0.00 | 34 | 1017.8 |
| 20260503171006 | 55 | 254 | 7.0 | 12.2 | 0.00 | 0.00 | 0.00 | 32 | 1017.8 |
| 20260503170502 | 56 | 240 | 7.8 | 13.0 | 0.00 | 0.00 | 0.00 | 33 | 1018.1 |
| 20260503150855 | 51 | 254 | 6.1 | 11.3 | 0.00 | 0.00 | 0.00 | 40 | 1019.4 |
| 20260503150351 | 51 | 257 | 4.3 | 11.3 | 0.00 | 0.00 | 0.00 | 44 | 1019.4 |
| 20260503140315 | 49 | 288 | 3.5 | 7.0 | 0.00 | 0.00 | 0.00 | 42 | 1019.1 |
| 20260503131244 | 46 | 281 | 5.2 | 7.8 | 0.00 | 0.00 | 0.00 | 45 | 1019.1 |
| 20260503130742 | 46 | 185 | 3.5 | 3.5 | 0.00 | 0.00 | 0.00 | 45 | 1019.1 |
| 20260503130239 | 46 | 195 | 2.6 | 6.1 | 0.00 | 0.00 | 0.00 | 48 | 1019.1 |
| 20260503120205 | 45 | 82 | 0.9 | 1.7 | 0.00 | 0.00 | 0.00 | 48 | 1019.0 |
| 20260503110632 | 41 | 236 | 1.7 | 2.6 | 0.00 | 0.00 | 0.00 | 57 | 1018.6 |
| 20260503110130 | 40 | 11 | 0.0 | 0.9 | 0.00 | 0.00 | 0.00 | 62 | 1018.5 |
| 20260503081446 | 39 | 80 | 0.0 | 0.0 | 0.00 | 0.00 | 0.00 | 69 | 1016.5 |
| 20260503080943 | 40 | 80 | 0.0 | 0.0 | 0.00 | 0.00 | 0.00 | 69 | 1016.6 |
| 20260503080439 | 40 | 91 | 0.0 | 0.9 | 0.00 | 0.00 | 0.00 | 70 | 1016.4 |
| 20260503072916 | 41 | 82 | 1.7 | 1.7 | 0.00 | 0.00 | 0.00 | 69 | 1016.0 |
| 20260503072413 | 41 | 83 | 0.0 | 0.9 | 0.00 | 0.00 | 0.00 | 71 | 1016.0 |
| 20260503071909 | 41 | 66 | 0.0 | 1.7 | 0.00 | 0.00 | 0.00 | 71 | 1016.3 |
| 20260503071407 | 41 | 71 | 0.0 | 0.0 | 0.00 | 0.00 | 0.00 | 73 | 1016.0 |
| 20260503070902 | 41 | 71 | 0.0 | 0.0 | 0.00 | 0.00 | 0.00 | 71 | 1016.2 |
| 20260503070400 | 41 | 73 | 0.0 | 0.0 | 0.00 | 0.00 | 0.00 | 71 | 1015.9 |
| 20260503060326 | 41 | 91 | 0.9 | 0.9 | 0.00 | 0.00 | 0.00 | 73 | 1015.9 |
| 20260503054814 | 41 | 83 | 0.0 | 0.0 | 0.00 | 0.00 | 0.00 | 72 | 1015.8 |
| 20260503054310 | 41 | 83 | 0.9 | 1.7 | 0.00 | 0.00 | 0.00 | 74 | 1015.8 |
| 20260503053808 | 40 | 62 | 0.0 | 0.0 | 0.00 | 0.00 | 0.00 | 74 | 1015.7 |
| 20260503053306 | 40 | 62 | 0.0 | 0.0 | 0.00 | 0.00 | 0.00 | 74 | 1015.8 |
| 20260503052802 | 40 | 62 | 0.0 | 0.9 | 0.00 | 0.00 | 0.00 | 73 | 1015.9 |
| 20260503052259 | 41 | 62 | 0.0 | 0.9 | 0.00 | 0.00 | 0.00 | 72 | 1015.8 |